2023/09/10 00:00:00, 0.1,20.7
2023/09/10 00:10:00, 0.2,20.3
2023/09/10 00:20:00, 0.3,20.4
2023/09/10 00:30:00, 0.3,20.4
2023/09/10 00:40:00, 0.4,20.3
2023/09/10 00:50:00, 0.2,20.3
2023/09/10 01:00:00, 0.2,20.4
2023/09/10 01:10:00, 0.2,20.4
2023/09/10 01:20:00, 0.3,20.2
2023/09/10 01:30:00, 0.3,20.1
2023/09/10 01:40:00, 0.2,19.8
2023/09/10 01:50:00, 0.2,20.3
2023/09/10 02:00:00, 0.3,20.1
2023/09/10 02:10:00, 0.2,19.8
2023/09/10 02:20:00, 0.3,19.5
2023/09/10 02:30:00, 0.5,19.7
2023/09/10 02:40:00, 0.3,19.6
2023/09/10 02:50:00, 0.3,19.6
2023/09/10 03:00:00, 0.4,19.4
2023/09/10 03:10:00, 0.3,19.5
2023/09/10 03:20:00, 0.3,19.2
2023/09/10 03:30:00, 0.4,19.3
2023/09/10 03:40:00, 0.2,19.3
2023/09/10 03:50:00, 0.2,19.1
2023/09/10 04:00:00, 0.2,19.2
2023/09/10 04:10:00, 0.4,19.3
2023/09/10 04:20:00, 0.3,19.2
2023/09/10 04:30:00, 0.3,19.0
2023/09/10 04:40:00, 0.3,19.0
2023/09/10 04:50:00, 0.3,18.8
2023/09/10 05:00:00, 0.2,19.0
2023/09/10 05:10:00, 0.2,18.9
2023/09/10 05:20:00, 0.1,18.9
2023/09/10 05:30:00, 0.4,18.9
2023/09/10 05:40:00, 0.3,18.8
2023/09/10 05:50:00, 0.3,18.7
2023/09/10 06:00:00, 0.2,18.9
2023/09/10 06:10:00, 0.3,19.1
2023/09/10 06:20:00, 0.2,19.1
2023/09/10 06:30:00, 0.0,19.2
2023/09/10 06:40:00, 0.0,19.1
2023/09/10 06:50:00, 0.1,19.2
2023/09/10 07:00:00, 0.0,19.6
2023/09/10 07:10:00, 0.0,20.1
2023/09/10 07:20:00, 0.0,20.4
2023/09/10 07:30:00, 0.0,20.6
2023/09/10 07:40:00, 0.0,21.4
2023/09/10 07:50:00, 0.0,22.5
2023/09/10 08:00:00, 0.0,24.0
2023/09/10 08:10:00, 0.0,23.9
2023/09/10 08:20:00, 0.0,24.4
2023/09/10 08:30:00, 0.0,24.9
2023/09/10 08:40:00, 0.0,25.3
2023/09/10 08:50:00, 0.0,25.8
2023/09/10 09:00:00, 0.0,26.9
2023/09/10 09:10:00, 0.0,27.2
2023/09/10 09:20:00, 0.0,29.4
2023/09/10 09:30:00, 0.0,29.3
2023/09/10 09:40:00, 0.0,29.3
2023/09/10 09:50:00, 0.0,28.1
2023/09/10 10:00:00, 0.0,29.8
2023/09/10 10:10:00, 0.0,30.9
2023/09/10 10:20:00, 0.0,31.2
2023/09/10 10:30:00, 0.0,31.7
2023/09/10 10:40:00, 0.0,30.8
2023/09/10 10:50:00, 0.0,29.3
2023/09/10 11:00:00, 0.0,29.3
2023/09/10 11:10:00, 0.0,29.1
2023/09/10 11:20:00, 0.0,29.0
2023/09/10 11:30:00, 0.0,29.2
2023/09/10 11:40:00, 0.0,29.2
2023/09/10 11:50:00, 0.0,29.0
2023/09/10 12:00:00, 0.0,30.1
2023/09/10 12:10:00, 0.0,29.8
2023/09/10 12:20:00, 0.0,30.3
2023/09/10 12:30:00, 0.0,29.8
2023/09/10 12:40:00, 0.0,29.4
2023/09/10 12:50:00, 0.0,29.3
2023/09/10 13:00:00, 0.0,29.2
2023/09/10 13:10:00, 0.0,30.0
2023/09/10 13:20:00,---,29.9
2023/09/10 13:30:00, 0.0,29.8
2023/09/10 13:40:00, 0.0,29.1
2023/09/10 13:50:00, 0.0,29.5
2023/09/10 14:00:00, 0.0,28.7
2023/09/10 14:10:00, 0.0,28.0
2023/09/10 14:20:00, 0.0,27.8
2023/09/10 14:30:00, 0.0,27.6
2023/09/10 14:40:00, 0.0,27.6
2023/09/10 14:50:00, 0.0,27.0
2023/09/10 15:00:00, 0.0,26.5
2023/09/10 15:10:00, 0.0,26.3
2023/09/10 15:20:00, 0.0,25.7
2023/09/10 15:30:00, 0.0,25.8
2023/09/10 15:40:00, 0.0,26.1
2023/09/10 15:50:00, 0.0,26.3
2023/09/10 16:00:00, 0.0,26.2
2023/09/10 16:10:00, 0.0,26.1
2023/09/10 16:20:00, 0.0,25.9
2023/09/10 16:30:00, 0.0,25.7
2023/09/10 16:40:00, 0.0,25.6
2023/09/10 16:50:00, 0.0,25.6
2023/09/10 17:00:00, 0.0,25.2
2023/09/10 17:10:00, 0.0,25.2
2023/09/10 17:20:00, 0.0,24.9
2023/09/10 17:30:00, 0.0,24.7
2023/09/10 17:40:00, 0.0,24.4
2023/09/10 17:50:00, 0.0,24.3
2023/09/10 18:00:00, 0.0,23.8
2023/09/10 18:10:00, 0.0,23.5
2023/09/10 18:20:00, 0.0,23.4
2023/09/10 18:30:00, 0.0,23.1
2023/09/10 18:40:00, 0.0,23.1
2023/09/10 18:50:00, 0.0,23.1
2023/09/10 19:00:00, 0.0,22.9
2023/09/10 19:10:00, 0.0,22.9
2023/09/10 19:20:00, 0.0,22.9
2023/09/10 19:30:00, 0.0,22.8
2023/09/10 19:40:00, 0.0,23.0
2023/09/10 19:50:00, 0.0,22.7
2023/09/10 20:00:00, 0.0,22.6
2023/09/10 20:10:00, 0.1,22.6
2023/09/10 20:20:00, 0.5,22.6
2023/09/10 20:30:00,---,22.5
2023/09/10 20:40:00,81.7,22.5
2023/09/10 20:50:00,81.5,22.2
2023/09/10 21:00:00,57.4,22.6
2023/09/10 21:10:00,57.4,22.2
2023/09/10 21:20:00,81.6,22.0
2023/09/10 21:30:00,81.6,22.0
2023/09/10 21:40:00,81.9,22.0
2023/09/10 21:50:00,---,22.0
2023/09/10 22:00:00,81.8,21.9
2023/09/10 22:10:00,81.5,21.7
2023/09/10 22:20:00,81.6,21.6
2023/09/10 22:30:00,81.7,21.5
2023/09/10 22:40:00,41.2,21.5
2023/09/10 22:50:00,57.3,21.4
2023/09/10 23:00:00,---,21.4
2023/09/10 23:10:00,57.2,21.5
2023/09/10 23:20:00, 0.6,21.6
2023/09/10 23:30:00,33.0,21.5
2023/09/10 23:40:00,---,21.5
2023/09/10 23:50:00, 0.7,21.6
